(°C)
12°
11°
11°
10°
10°
(°C)
10°
KKD
KKD
KKD
KKD
KKD
K
K
(km/saat)
12-19
11-19
11-19
10-19
10-19
10-17
10-17
(mm)
0
0
0
0
0
0
0
(%)
30
20
10
0
0
0
0

Güneşin açısı

/ -25.2°
sun-icon
UV 1
07:19
18:02
Azalan ay (232°)
22:32
10:27

Tampa (KTPF) için METAR

Zaman Koşullar Sıcaklık/
Çiy noktası
Rüzgar Görünürlük Hava Bulutlar Basınç Değiştir Ham
MVFR 12°C / 10°C 40º 7kt >10km - Broken Clouds 1500ft
Overcast 12000ft
- KTPF 230035Z AUTO 04007KT 7SM BKN015 OVC120 12/10 A3018 RMK AO2
MVFR 12°C / 10°C 50º 8kt >10km - Broken Clouds 1500ft
Overcast 11000ft
- KTPF 230015Z AUTO 05008KT 10SM BKN015 OVC110 12/10 A3017 RMK AO2
VFR 12°C / 10°C 50º 8kt >10km - Scattered Clouds 1500ft
Overcast 11000ft
- KTPF 222355Z AUTO 05008KT 10SM SCT015 OVC110 12/10 A3017 RMK AO2
VFR 13°C / 10°C 50º 9kt >10km - Scattered Clouds 1500ft
Overcast 11000ft
- KTPF 222335Z AUTO 05009KT 10SM SCT015 OVC110 13/10 A3017 RMK AO2
VFR 13°C / 10°C 50º 11kt >10km - Scattered Clouds 4900ft
Overcast 11000ft
- KTPF 222315Z AUTO 05011KT 10SM SCT049 OVC110 13/10 A3016 RMK AO2
VFR 13°C / 10°C 40º 7kt >10km - Broken Clouds 4900ft
Broken Clouds 7500ft
Overcast 11000ft
- KTPF 222255Z AUTO 04007KT 7SM BKN049 BKN075 OVC110 13/10 A3016 RMK AO2
VFR 14°C / 10°C 40º 9kt >10km - Broken Clouds 4700ft
Broken Clouds 5000ft
Overcast 7500ft
- KTPF 222235Z AUTO 04009KT 7SM BKN047 BKN050 OVC075 14/10 A3015 RMK AO2
VFR 13°C / 10°C 40º 10kt >10km - Broken Clouds 4500ft
Broken Clouds 5000ft
Overcast 7500ft
- KTPF 222215Z AUTO 04010KT 7SM BKN045 BKN050 OVC075 13/10 A3015 RMK AO2
VFR 14°C / 11°C 40º 9kt >10km - Overcast 4300ft - KTPF 222155Z AUTO 04009KT 7SM OVC043 14/11 A3015 RMK AO2
VFR 14°C / 11°C 40º 7kt >10km - Overcast 4100ft - KTPF 222135Z AUTO 04007KT 7SM OVC041 14/11 A3015 RMK AO2
VFR 14°C / 11°C 40º 5kt >10km - Scattered Clouds 1400ft
Overcast 4100ft
- KTPF 222115Z AUTO 04005KT 7SM SCT014 OVC041 14/11 A3015 RMK AO2
MVFR 14°C / 11°C 20º 5kt >10km - Broken Clouds 1200ft
Overcast 3900ft
- KTPF 222055Z AUTO 02005KT 7SM BKN012 OVC039 14/11 A3016 RMK AO2
MVFR 13°C / 12°C 10º 4kt >10km - Broken Clouds 1000ft
Broken Clouds 3900ft
Overcast 6500ft
- KTPF 222035Z AUTO 01004KT 7SM BKN010 BKN039 OVC065 13/12 A3015 RMK AO2
MVFR 14°C / 12°C 70º 7kt 8000m Mist Vertical Visibility of 0ft.
Overcast 6500ft
- KTPF 222015Z AUTO 07007KT 5SM BR SCT039 OVC065 14/12 A3014 RMK AO2
VFR 13°C / 13°C 80º 9kt >10km - Scattered Clouds 700ft
Broken Clouds 3900ft
Overcast 6500ft
- KTPF 221955Z AUTO 08009KT 7SM SCT007 BKN039 OVC065 13/13 A3014 RMK AO2
IFR 13°C / 13°C 80º 10kt >10km - Broken Clouds 700ft
Overcast 3900ft
- KTPF 221935Z AUTO 08010KT 10SM BKN007 OVC039 13/13 A3015 RMK AO2
IFR 13°C / 13°C 60º 8kt >10km - Broken Clouds 700ft
Overcast 3700ft
- KTPF 221915Z AUTO 06008KT 7SM BKN007 OVC037 13/13 A3017 RMK AO2
IFR 13°C / 13°C 60º 8kt >10km 0.25mm precipitation Broken Clouds 700ft
Overcast 3700ft
- KTPF 221855Z AUTO 06008KT 7SM BKN007 OVC037 13/13 A3017 RMK AO2 P0001
IFR 12°C / 12°C 50º 8kt >10km 0.25mm precipitation Overcast 700ft - KTPF 221835Z AUTO 05008KT 10SM OVC007 12/12 A3018 RMK AO2 P0001
IFR 12°C / 12°C 40º 9kt >10km 0.25mm precipitation Broken Clouds 700ft
Broken Clouds 2300ft
Overcast 3200ft
- KTPF 221815Z AUTO 04009KT 7SM BKN007 BKN023 OVC032 12/12 A3019 RMK AO2 P0001
IFR 11°C / 11°C 60º 9kt 6400m Light Rain 0.25mm precipitation Broken Clouds 700ft
Broken Clouds 2300ft
Overcast 3000ft
- KTPF 221755Z AUTO 06009KT 4SM -RA BKN007 BKN023 OVC030 11/11 A3020 RMK AO2 P0001
IFR 11°C / 11°C 40º 10kt 6400m Mist 0.25mm precipitation Overcast 700ft - KTPF 221735Z AUTO 04010KT 4SM BR OVC007 11/11 A3020 RMK AO2 P0001
IFR 11°C / 11°C 40º 6kt 8000m Light Rain 0.25mm precipitation Broken Clouds 700ft
Overcast 1100ft
- KTPF 221715Z AUTO 04006KT 5SM -RA BKN007 OVC011 11/11 A3021 RMK AO2 P0001
IFR 11°C / 11°C 50º 11kt Gust 14kt 6400m Rain 0.25mm precipitation Broken Clouds 700ft
Broken Clouds 1200ft
Overcast 2500ft
- KTPF 221655Z AUTO 05011G14KT 4SM RA BKN007 BKN012 OVC025 11/11 A3021 RMK AO2 P0001

MVFR

12°C / 10°C

[Daha fazla]
Rüzgar 40º 7kt
Görünürlük >10km
Hava -
Bulutlar Broken Clouds 1500ft
Overcast 12000ft
Basınç
Değiştir -
Ham KTPF 230035Z AUTO 04007KT 7SM BKN015 OVC120 12/10 A3018 RMK AO2

MVFR

12°C / 10°C

[Daha fazla]
Rüzgar 50º 8kt
Görünürlük >10km
Hava -
Bulutlar Broken Clouds 1500ft
Overcast 11000ft
Basınç
Değiştir -
Ham KTPF 230015Z AUTO 05008KT 10SM BKN015 OVC110 12/10 A3017 RMK AO2

VFR

12°C / 10°C

[Daha fazla]
Rüzgar 50º 8kt
Görünürlük >10km
Hava -
Bulutlar Scattered Clouds 1500ft
Overcast 11000ft
Basınç
Değiştir -
Ham KTPF 222355Z AUTO 05008KT 10SM SCT015 OVC110 12/10 A3017 RMK AO2

VFR

13°C / 10°C

[Daha fazla]
Rüzgar 50º 9kt
Görünürlük >10km
Hava -
Bulutlar Scattered Clouds 1500ft
Overcast 11000ft
Basınç
Değiştir -
Ham KTPF 222335Z AUTO 05009KT 10SM SCT015 OVC110 13/10 A3017 RMK AO2

VFR

13°C / 10°C

[Daha fazla]
Rüzgar 50º 11kt
Görünürlük >10km
Hava -
Bulutlar Scattered Clouds 4900ft
Overcast 11000ft
Basınç
Değiştir -
Ham KTPF 222315Z AUTO 05011KT 10SM SCT049 OVC110 13/10 A3016 RMK AO2

VFR

13°C / 10°C

[Daha fazla]
Rüzgar 40º 7kt
Görünürlük >10km
Hava -
Bulutlar Broken Clouds 4900ft
Broken Clouds 7500ft
Overcast 11000ft
Basınç
Değiştir -
Ham KTPF 222255Z AUTO 04007KT 7SM BKN049 BKN075 OVC110 13/10 A3016 RMK AO2

VFR

14°C / 10°C

[Daha fazla]
Rüzgar 40º 9kt
Görünürlük >10km
Hava -
Bulutlar Broken Clouds 4700ft
Broken Clouds 5000ft
Overcast 7500ft
Basınç
Değiştir -
Ham KTPF 222235Z AUTO 04009KT 7SM BKN047 BKN050 OVC075 14/10 A3015 RMK AO2

VFR

13°C / 10°C

[Daha fazla]
Rüzgar 40º 10kt
Görünürlük >10km
Hava -
Bulutlar Broken Clouds 4500ft
Broken Clouds 5000ft
Overcast 7500ft
Basınç
Değiştir -
Ham KTPF 222215Z AUTO 04010KT 7SM BKN045 BKN050 OVC075 13/10 A3015 RMK AO2

VFR

14°C / 11°C

[Daha fazla]
Rüzgar 40º 9kt
Görünürlük >10km
Hava -
Bulutlar Overcast 4300ft
Basınç
Değiştir -
Ham KTPF 222155Z AUTO 04009KT 7SM OVC043 14/11 A3015 RMK AO2

VFR

14°C / 11°C

[Daha fazla]
Rüzgar 40º 7kt
Görünürlük >10km
Hava -
Bulutlar Overcast 4100ft
Basınç
Değiştir -
Ham KTPF 222135Z AUTO 04007KT 7SM OVC041 14/11 A3015 RMK AO2

VFR

14°C / 11°C

[Daha fazla]
Rüzgar 40º 5kt
Görünürlük >10km
Hava -
Bulutlar Scattered Clouds 1400ft
Overcast 4100ft
Basınç
Değiştir -
Ham KTPF 222115Z AUTO 04005KT 7SM SCT014 OVC041 14/11 A3015 RMK AO2

MVFR

14°C / 11°C

[Daha fazla]
Rüzgar 20º 5kt
Görünürlük >10km
Hava -
Bulutlar Broken Clouds 1200ft
Overcast 3900ft
Basınç
Değiştir -
Ham KTPF 222055Z AUTO 02005KT 7SM BKN012 OVC039 14/11 A3016 RMK AO2

MVFR

13°C / 12°C

[Daha fazla]
Rüzgar 10º 4kt
Görünürlük >10km
Hava -
Bulutlar Broken Clouds 1000ft
Broken Clouds 3900ft
Overcast 6500ft
Basınç
Değiştir -
Ham KTPF 222035Z AUTO 01004KT 7SM BKN010 BKN039 OVC065 13/12 A3015 RMK AO2

MVFR

14°C / 12°C

[Daha fazla]
Rüzgar 70º 7kt
Görünürlük 8000m
Hava Mist
Bulutlar Vertical Visibility of 0ft.
Overcast 6500ft
Basınç
Değiştir -
Ham KTPF 222015Z AUTO 07007KT 5SM BR SCT039 OVC065 14/12 A3014 RMK AO2

VFR

13°C / 13°C

[Daha fazla]
Rüzgar 80º 9kt
Görünürlük >10km
Hava -
Bulutlar Scattered Clouds 700ft
Broken Clouds 3900ft
Overcast 6500ft
Basınç
Değiştir -
Ham KTPF 221955Z AUTO 08009KT 7SM SCT007 BKN039 OVC065 13/13 A3014 RMK AO2

IFR

13°C / 13°C

[Daha fazla]
Rüzgar 80º 10kt
Görünürlük >10km
Hava -
Bulutlar Broken Clouds 700ft
Overcast 3900ft
Basınç
Değiştir -
Ham KTPF 221935Z AUTO 08010KT 10SM BKN007 OVC039 13/13 A3015 RMK AO2

IFR

13°C / 13°C

[Daha fazla]
Rüzgar 60º 8kt
Görünürlük >10km
Hava -
Bulutlar Broken Clouds 700ft
Overcast 3700ft
Basınç
Değiştir -
Ham KTPF 221915Z AUTO 06008KT 7SM BKN007 OVC037 13/13 A3017 RMK AO2

IFR

13°C / 13°C

[Daha fazla]
Rüzgar 60º 8kt
Görünürlük >10km
Hava 0.25mm precipitation
Bulutlar Broken Clouds 700ft
Overcast 3700ft
Basınç
Değiştir -
Ham KTPF 221855Z AUTO 06008KT 7SM BKN007 OVC037 13/13 A3017 RMK AO2 P0001

IFR

12°C / 12°C

[Daha fazla]
Rüzgar 50º 8kt
Görünürlük >10km
Hava 0.25mm precipitation
Bulutlar Overcast 700ft
Basınç
Değiştir -
Ham KTPF 221835Z AUTO 05008KT 10SM OVC007 12/12 A3018 RMK AO2 P0001

IFR

12°C / 12°C

[Daha fazla]
Rüzgar 40º 9kt
Görünürlük >10km
Hava 0.25mm precipitation
Bulutlar Broken Clouds 700ft
Broken Clouds 2300ft
Overcast 3200ft
Basınç
Değiştir -
Ham KTPF 221815Z AUTO 04009KT 7SM BKN007 BKN023 OVC032 12/12 A3019 RMK AO2 P0001

IFR

11°C / 11°C

[Daha fazla]
Rüzgar 60º 9kt
Görünürlük 6400m
Hava Light Rain 0.25mm precipitation
Bulutlar Broken Clouds 700ft
Broken Clouds 2300ft
Overcast 3000ft
Basınç
Değiştir -
Ham KTPF 221755Z AUTO 06009KT 4SM -RA BKN007 BKN023 OVC030 11/11 A3020 RMK AO2 P0001

IFR

11°C / 11°C

[Daha fazla]
Rüzgar 40º 10kt
Görünürlük 6400m
Hava Mist 0.25mm precipitation
Bulutlar Overcast 700ft
Basınç
Değiştir -
Ham KTPF 221735Z AUTO 04010KT 4SM BR OVC007 11/11 A3020 RMK AO2 P0001

IFR

11°C / 11°C

[Daha fazla]
Rüzgar 40º 6kt
Görünürlük 8000m
Hava Light Rain 0.25mm precipitation
Bulutlar Broken Clouds 700ft
Overcast 1100ft
Basınç
Değiştir -
Ham KTPF 221715Z AUTO 04006KT 5SM -RA BKN007 OVC011 11/11 A3021 RMK AO2 P0001

IFR

11°C / 11°C

[Daha fazla]
Rüzgar 50º 11kt Gust 14kt
Görünürlük 6400m
Hava Rain 0.25mm precipitation
Bulutlar Broken Clouds 700ft
Broken Clouds 1200ft
Overcast 2500ft
Basınç
Değiştir -
Ham KTPF 221655Z AUTO 05011G14KT 4SM RA BKN007 BKN012 OVC025 11/11 A3021 RMK AO2 P0001

Tampa için radar ve yağış nowcast

Çise
Hafif
Orta
Ağır
Çok ağır
Selamlamak

Konum işaretleyicisi Tampa üzerine yerleştirilir. Bu animasyon son saat içerisindeki yağış radarını ve 1h tahminini gösterir. Hafif yağmur veya kar yağışı radar için görünmez olabilir. Yağış şiddeti açık mavi ile koyu mor arasındaki renklerle kodlanmıştır.

Tampa için şu anki uydu görüntüleri, ABD

Konum işaretleyici Tampa üzerine yerleştirilir. [Daha fazla]

Gerçek zamanlı uydu görüntüsü gündüz süresince görülür ışığı gece süresince kızılötesi ışınım ile birleştirir. Gece kızılötesi ışınım sıcaklık farklarını algılayabildiğinden dolayı görüntü karanlık değildir. Ancak düşük bulutları ve sisi yer sıcaklığından ayırmak zordur ve bu nedenle gece boyunca neredeyse görünmez olabilirler. Avrupa için Meteosat uydu görüntüleri gerçek zamanlı olarak her 5 dakikada bir güncellenir. GOES-16/GOES-17 (Kuzey ve Güney Amerika) ve Himawari (Asya) görüntüleri her 10 dakikada bir güncellenir.